Zurück zum Katalog

QIANFAN-18

AktivKommunikationPO
NORAD 60396·PAYLOAD·🇨🇳 China

Gestartet Aug 6, 2024 von Taiyuan Satellite Launch Center

Loading…

Nächste Überflüge (nächste 24 Stunden)

TLE

AktuellSource: Space-Track

Epoche: Sep 14, 2026, 14:20 UTC

1 60396U 24140T   26257.59788825  .00000006  00000-0 -99703-5 0  9999
2 60396  88.9670 270.3446 0016328 109.2583 251.0336 13.51020913104772

Verfolge QIANFAN-18 in Echtzeit mit AllMySat

Download on the App Store